Location: ??????
(56.0120°N, 39.1740°E)
Time: 06:25:59
(UTC+00:00)

Cosmos 1959 Rocket - Pass Details

Date: 14 April 2026
Orbit: 946 x 997 km, 82.9° (Epoch: 12 May)

Event Time Altitude Azimuth Distance (km) Brightness Sun altitude
Rises 17:57:02 0° 182° (S) 3,706 7.2 -11.8°
Reaches altitude 10° 17:59:33 10° 181° (S) 2,759 6.5 -12.0°
Maximum altitude 18:05:53 76° 97° (E) 1,029 4.5 -12.7°
Drops below altitude 10° 18:12:12 10° 14° (NNE) 2,756 7.2 -13.4°
Sets 18:14:43 0° 13° (NNE) 3,701 7.9 -13.7°
